When you browse on this site, cookies collect data to enhance your experience and personalize the content and advertising you see.
Visit our Privacy Policy to learn more. By continuing to use the site, you agree to this use of cookies and data.
  • In Netherlands
  • List of Countries
  • For 7 days
  • Water Temperature
  • Satellite Maps
  • Weather Map
  • Weather Widgets
  • user-avatar
    Login

    Hourly Weather Gaborone

    Today, 20 May, Monday

    Time Temperature Precipitation Wind Pressure Humidity
    00:00 +18°C° 0 mm 0 mps 680 mmHg 32%
    01:00 +17°C° 0 mm 0 mps 680 mmHg 34%
    02:00 +17°C° 0 mm 0 mps 680 mmHg 31%
    03:00 +18°C° 0 mm 1 mps 680 mmHg 34%
    04:00 +16°C° 0 mm 1 mps 680 mmHg 37%
    05:00 +16°C° 0 mm 1 mps 679 mmHg 40%
    06:00 +16°C° 0 mm 1 mps 680 mmHg 42%
    07:00 +18°C° 0 mm 1 mps 680 mmHg 43%
    08:00 +19°C° 0 mm 1 mps 681 mmHg 43%
    09:00 +20°C° 0 mm 2 mps 681 mmHg 39%
    10:00 +23°C° 0 mm 2 mps 681 mmHg 36%
    11:00 +26°C° 0 mm 3 mps 681 mmHg 32%
    12:00 +27°C° 0 mm 3 mps 681 mmHg 28%
    13:00 +28°C° 0 mm 3 mps 680 mmHg 24%
    14:00 +29°C° 0 mm 2 mps 680 mmHg 20%
    15:00 +28°C° 0 mm 2 mps 679 mmHg 21%
    16:00 +28°C° 0 mm 1 mps 679 mmHg 21%
    17:00 +27°C° 0 mm 1 mps 679 mmHg 21%
    18:00 +25°C° 0 mm 1 mps 679 mmHg 23%
    19:00 +24°C° 0 mm 1 mps 678 mmHg 25%
    20:00 +22°C° 0 mm 1 mps 678 mmHg 27%
    21:00 +21°C° 0 mm 1 mps 678 mmHg 28%
    22:00 +21°C° 0 mm 1 mps 678 mmHg 29%
    23:00 +20°C° 0 mm 1 mps 678 mmHg 30%

    Tomorrow, 21 May, Tuesday

    Time Temperature Precipitation Wind Pressure Humidity
    00:00 +17°C° 0 mm 0 mps 678 mmHg 31%
    01:00 +17°C° 0 mm 0 mps 678 mmHg 32%
    02:00 +16°C° 0 mm 0 mps 678 mmHg 34%
    03:00 +16°C° 0 mm 0 mps 678 mmHg 35%
    04:00 +15°C° 0 mm 0 mps 678 mmHg 36%
    05:00 +15°C° 0 mm 0 mps 678 mmHg 38%
    06:00 +15°C° 0 mm 0 mps 678 mmHg 37%
    07:00 +16°C° 0 mm 0 mps 679 mmHg 36%
    08:00 +17°C° 0 mm 0 mps 679 mmHg 35%
    09:00 +19°C° 0 mm 0 mps 680 mmHg 31%
    10:00 +24°C° 0 mm 1 mps 681 mmHg 26%
    11:00 +27°C° 0 mm 1 mps 681 mmHg 22%
    12:00 +28°C° 0 mm 1 mps 681 mmHg 20%
    13:00 +29°C° 0 mm 1 mps 680 mmHg 19%
    14:00 +30°C° 0 mm 1 mps 680 mmHg 17%
    15:00 +29°C° 0 mm 1 mps 680 mmHg 18%
    16:00 +28°C° 0 mm 1 mps 680 mmHg 19%
    17:00 +26°C° 0 mm 0 mps 679 mmHg 20%
    18:00 +24°C° 0 mm 0 mps 679 mmHg 22%
    19:00 +23°C° 0 mm 0 mps 679 mmHg 23%
    20:00 +23°C° 0 mm 1 mps 679 mmHg 25%
    21:00 +21°C° 0 mm 0 mps 679 mmHg 26%
    22:00 +20°C° 0 mm 0 mps 680 mmHg 26%
    23:00 +20°C° 0 mm 0 mps 680 mmHg 27%

    Day after tomorrow, 22 May, Wednesday

    Time Temperature Precipitation Wind Pressure Humidity
    00:00 +19°C° 0 mm 0 mps 680 mmHg 28%
    01:00 +19°C° 0 mm 0 mps 680 mmHg 29%
    02:00 +18°C° 0 mm 0 mps 680 mmHg 30%
    03:00 +19°C° 0 mm 1 mps 679 mmHg 32%
    04:00 +18°C° 0 mm 1 mps 679 mmHg 34%
    05:00 +18°C° 0 mm 1 mps 679 mmHg 35%
    06:00 +17°C° 0 mm 2 mps 680 mmHg 36%
    07:00 +17°C° 0 mm 2 mps 680 mmHg 36%
    08:00 +17°C° 0 mm 2 mps 681 mmHg 37%
    09:00 +19°C° 0 mm 3 mps 681 mmHg 36%
    10:00 +22°C° 0 mm 3 mps 682 mmHg 34%
    11:00 +25°C° 0 mm 4 mps 683 mmHg 33%
    12:00 +26°C° 0 mm 4 mps 682 mmHg 30%
    13:00 +27°C° 0 mm 3 mps 682 mmHg 28%
    14:00 +28°C° 0 mm 3 mps 681 mmHg 25%
    15:00 +28°C° 0 mm 3 mps 681 mmHg 26%
    16:00 +27°C° 0 mm 2 mps 680 mmHg 26%
    17:00 +27°C° 0 mm 2 mps 680 mmHg 27%
    18:00 +25°C° 0 mm 2 mps 680 mmHg 31%
    19:00 +24°C° 0 mm 2 mps 680 mmHg 35%
    20:00 +22°C° 0 mm 1 mps 680 mmHg 39%
    21:00 +21°C° 0 mm 1 mps 681 mmHg 42%
    22:00 +20°C° 0 mm 1 mps 681 mmHg 46%
    23:00 +20°C° 0 mm 1 mps 681 mmHg 50%

    23 May, Thursday

    Time Temperature Precipitation Wind Pressure Humidity
    00:00 +19°C° 0 mm 1 mps 681 mmHg 53%
    01:00 +18°C° 0 mm 1 mps 680 mmHg 56%
    02:00 +18°C° 0 mm 1 mps 680 mmHg 60%
    03:00 +16°C° 0 mm 1 mps 680 mmHg 62%
    04:00 +16°C° 0 mm 1 mps 680 mmHg 65%
    05:00 +15°C° 0 mm 1 mps 680 mmHg 68%
    06:00 +16°C° 0 mm 1 mps 680 mmHg 68%
    07:00 +16°C° 0 mm 1 mps 681 mmHg 68%
    08:00 +16°C° 0 mm 1 mps 681 mmHg 68%
    09:00 +20°C° 0 mm 1 mps 682 mmHg 60%
    10:00 +21°C° 0 mm 2 mps 682 mmHg 51%
    11:00 +24°C° 0 mm 3 mps 682 mmHg 43%
    12:00 +26°C° 0 mm 3 mps 682 mmHg 37%
    13:00 +27°C° 0 mm 3 mps 681 mmHg 31%
    14:00 +29°C° 0 mm 3 mps 681 mmHg 25%
    15:00 +28°C° 0 mm 2 mps 681 mmHg 25%
    16:00 +28°C° 0 mm 2 mps 680 mmHg 25%
    17:00 +27°C° 0 mm 2 mps 680 mmHg 25%
    18:00 +26°C° 0 mm 1 mps 680 mmHg 28%
    19:00 +22°C° 0 mm 0 mps 681 mmHg 30%
    20:00 +20°C° 0 mm 0 mps 681 mmHg 33%
    21:00 +20°C° 0 mm 0 mps 681 mmHg 34%
    22:00 +19°C° 0 mm 0 mps 681 mmHg 35%
    23:00 +19°C° 0 mm 0 mps 681 mmHg 36%

    24 May, Friday

    Time Temperature Precipitation Wind Pressure Humidity
    00:00 +18°C° 0 mm 0 mps 681 mmHg 37%
    01:00 +18°C° 0 mm 0 mps 681 mmHg 39%
    02:00 +17°C° 0 mm 0 mps 681 mmHg 40%
    03:00 +17°C° 0 mm 0 mps 681 mmHg 41%
    04:00 +16°C° 0 mm 0 mps 681 mmHg 42%
    05:00 +18°C° 0 mm 1 mps 681 mmHg 43%
    06:00 +18°C° 0 mm 1 mps 681 mmHg 44%
    07:00 +19°C° 0 mm 1 mps 682 mmHg 44%
    08:00 +19°C° 0 mm 1 mps 683 mmHg 45%
    09:00 +20°C° 0 mm 2 mps 683 mmHg 42%
    10:00 +23°C° 0 mm 2 mps 684 mmHg 39%
    11:00 +26°C° 0 mm 3 mps 684 mmHg 37%
    12:00 +27°C° 0 mm 3 mps 683 mmHg 33%
    13:00 +28°C° 0 mm 2 mps 683 mmHg 30%
    14:00 +29°C° 0 mm 2 mps 682 mmHg 27%
    15:00 +28°C° 0 mm 2 mps 682 mmHg 27%
    16:00 +28°C° 0 mm 1 mps 682 mmHg 27%
    17:00 +27°C° 0 mm 1 mps 682 mmHg 27%
    18:00 +26°C° 0 mm 1 mps 682 mmHg 29%
    19:00 +25°C° 0 mm 1 mps 682 mmHg 31%
    20:00 +24°C° 0 mm 1 mps 683 mmHg 32%
    21:00 +23°C° 0 mm 1 mps 682 mmHg 36%
    22:00 +22°C° 0 mm 1 mps 682 mmHg 40%
    23:00 +21°C° 0 mm 1 mps 682 mmHg 44%

    25 May, Saturday

    Time Temperature Precipitation Wind Pressure Humidity
    00:00 +20°C° 0.2 mm 1 mps 682 mmHg 49%
    01:00 +20°C° 0.2 mm 1 mps 682 mmHg 54%
    02:00 +19°C° 0.2 mm 1 mps 682 mmHg 59%
    03:00 +18°C° 0 mm 1 mps 682 mmHg 63%
    04:00 +18°C° 0 mm 1 mps 682 mmHg 68%
    05:00 +16°C° 0 mm 1 mps 682 mmHg 72%
    06:00 +16°C° 0 mm 1 mps 682 mmHg 72%
    07:00 +16°C° 0 mm 1 mps 683 mmHg 73%
    08:00 +18°C° 0 mm 1 mps 683 mmHg 74%
    09:00 +20°C° 0 mm 1 mps 684 mmHg 66%
    10:00 +20°C° 0 mm 2 mps 684 mmHg 58%
    11:00 +23°C° 0 mm 2 mps 684 mmHg 50%
    12:00 +25°C° 0 mm 2 mps 684 mmHg 45%
    13:00 +26°C° 0 mm 2 mps 683 mmHg 39%
    14:00 +27°C° 0 mm 2 mps 682 mmHg 34%
    15:00 +27°C° 0 mm 2 mps 682 mmHg 34%
    16:00 +27°C° 0 mm 2 mps 682 mmHg 33%
    17:00 +26°C° 0 mm 2 mps 682 mmHg 33%
    18:00 +25°C° 0 mm 1 mps 682 mmHg 36%
    19:00 +23°C° 0 mm 1 mps 682 mmHg 39%
    20:00 +20°C° 0 mm 0 mps 682 mmHg 42%
    21:00 +19°C° 0 mm 0 mps 682 mmHg 43%
    22:00 +19°C° 0 mm 0 mps 682 mmHg 45%
    23:00 +18°C° 0 mm 0 mps 682 mmHg 46%
    Show more